Weather WX

World > North America > United States > Minnesota

Taopi, Minnesota Regional Weather

Lat: 43.56N, Lon: 92.64W
Wx Zone: MNZ094
Feedback

Taopi, MN Regional Weather

Expires:201906200000;;754026
ASUS43 KMPX 192310
RWRMN 
WEATHER ROUNDUP FOR MINNESOTA
NATIONAL WEATHER SERVICE TWIN CITIES/CHANHASSEN MN
600 PM CDT WED JUN 19 2019


NOTE: "FAIR" INDICATES FEW OR NO CLOUDS BELOW 12,000 FEET WITH NO
SIGNIFICANT WEATHER AND/OR OBSTRUCTIONS TO VISIBILITY. N/A MEANS
CURRENT SKY AND/OR WEATHER CONDITIONS ARE NOT AVAILABLE.


MNZ078>079-086>088-094>096-200000-
   Southeast Minnesota   
  
CITY           SKY/WX    TMP DP  RH WIND       PRES   REMARKS
ROCHESTER      FAIR      72  54  53 NE13      29.75F                  
RED WING       FAIR      77  39  25 NE7       29.73F                  
STANTON        CLOUDY    73  54  52 E6        29.73F                  
DODGE CENTER   FAIR      73  50  43 NE9       29.75F                  
WINONA         FAIR      77  54  44 NE6       29.72F                  
AUSTIN         FAIR      77  46  33 NE10      29.73F                  
PRESTON        FAIR      73  52  48 NE7       29.74F                  
$$
ABBREVIATIONS USED IN REMARKS
   TC - TEMPERATURES IN CELSIUS
  WCI - WIND CHILL INDEX
   HX - HEAT INDEX
  VSB - VISIBILITY 
$$
  

SKY/WX - Weather  TMP - Temperature  DP - Dew Point  RH - Relative Humidity
WIND - Wind Direction/Speed PRES - Barometric Pressure VSB - Visibility
WCI - Wind Chill Index E13G22 Wind - East Wind 13 mph/Gusts of 22 mph